Spokane Fairchild, WA
on Wednesday, February 6, 2013

Wednesday
Previous Day Next Day
Daily Summary
 ActualAverage (KGEG)Record (KGEG)
Temperature
Mean Temperature °F 32°F  
Max Temperature 39°F 38°F 54°F (1886)
Min Temperature 32°F 26°F -18°F (1883)
Degree Days
Heating Degree Days 30 33  
Month to date heating degree days 200  
Since 1 July heating degree days 4133  
Cooling Degree Days 0 0  
Month to date cooling degree days 0  
Year to date cooling degree days 0  
Moisture
Dew Point 32°F   
Average Humidity 92    
Maximum Humidity 100    
Minimum Humidity 75    
Precipitation
Precipitation 0.00 in 0.05 in 0.90 in (1940)
Month to date precipitation 0.28  
Year to date precipitation 2.07  
Snow
Snow 0.00 in 0.20 in 6.50 in (1939)
Month to date snowfall 1.7  
Since 1 July snowfall 35.2  
Snow Depth in   
Wind
Wind Speed 11 mph   
Max Wind Speed 20 mph   
Max Gust Speed 23 mph   
Visibility 10 miles   
Events     

Key: T is trace of precipitation, MM is missing value
Source: NWS Daily Summary
Time(PST)TemperatureDew PointHumidity Pressure Visibility Wind DirectionWind SpeedGust SpeedPrecipitationEvents Conditions
12:09 AM 32.0°F 32.0°F 100% 29.88 in 10.0 miles South 12.7 mph - N/A   Overcast
12:27 AM 32.0°F 32.0°F 100% 29.88 in 10.0 miles South 11.5 mph - N/A   Overcast
12:37 AM 32.0°F 32.0°F 100% 29.88 in 10.0 miles South 12.7 mph - N/A   Overcast
12:54 AM 33.8°F 32.0°F 93% 29.88 in 10.0 miles SSW 12.7 mph - N/A   Mostly Cloudy
12:58 AM 33.8°F 31.6°F 92% 29.95 in 10.0 miles South 12.7 mph - 0.00 in   Mostly Cloudy
1:03 AM 33.8°F 32.0°F 93% 29.89 in 10.0 miles SSW 11.5 mph - N/A   Scattered Clouds
1:06 AM 32.0°F 32.0°F 100% 29.88 in 10.0 miles South 16.1 mph - N/A   Mostly Cloudy
1:08 AM 32.0°F 32.0°F 100% 29.88 in 10.0 miles South 13.8 mph - N/A   Mostly Cloudy
1:28 AM 33.8°F 32.0°F 93% 29.89 in 10.0 miles SSW 12.7 mph 20.7 mph N/A   Mostly Cloudy
1:58 AM 33.4°F 31.6°F 93% 29.95 in 10.0 miles SSW 16.1 mph 23.0 mph 0.00 in   Overcast
1:59 AM 32.0°F 32.0°F 100% 29.89 in 10.0 miles South 16.1 mph - N/A   Mostly Cloudy
2:18 AM 32.0°F 32.0°F 100% 29.91 in 10.0 miles SSW 15.0 mph - N/A   Mostly Cloudy
2:31 AM 32.0°F 32.0°F 100% 29.90 in 10.0 miles SSW 15.0 mph - N/A   Overcast
2:32 AM 32.0°F 32.0°F 100% 29.90 in 10.0 miles SSW 15.0 mph - N/A   Overcast
2:58 AM 33.3°F 31.6°F 94% 29.96 in 10.0 miles SSW 11.5 mph - 0.00 in   Overcast
3:00 AM 32.0°F 32.0°F 100% 29.90 in 10.0 miles SSW 15.0 mph - N/A   Overcast
3:08 AM 32.0°F 32.0°F 100% 29.90 in 10.0 miles SSW 13.8 mph - N/A   Overcast
3:35 AM 32.0°F 32.0°F 100% 29.90 in 10.0 miles SSW 13.8 mph - N/A   Overcast
3:58 AM 32.7°F 31.1°F 94% 29.97 in 10.0 miles SSW 13.8 mph 20.7 mph 0.00 in   Overcast
4:12 AM 32.0°F 32.0°F 100% 29.91 in 10.0 miles SSW 16.1 mph - N/A   Mostly Cloudy
4:30 AM 32.0°F 32.0°F 100% 29.92 in 10.0 miles SSW 17.3 mph - N/A   Scattered Clouds
4:58 AM 32.5°F 31.1°F 94% 29.98 in 10.0 miles SSW 16.1 mph - 0.00 in   Partly Cloudy
5:01 AM 32.0°F 32.0°F 100% 29.92 in 10.0 miles SSW 15.0 mph - N/A   Partly Cloudy
5:10 AM 32.0°F 32.0°F 100% 29.92 in 10.0 miles SSW 15.0 mph - N/A   Scattered Clouds
5:32 AM 32.0°F 32.0°F 100% 29.93 in 10.0 miles SSW 10.4 mph - N/A   Scattered Clouds
5:58 AM 32.7°F 31.5°F 95% 30.00 in 10.0 miles SSW 11.5 mph - 0.00 in   Scattered Clouds
6:03 AM 32.0°F 32.0°F 100% 29.94 in 10.0 miles SW 9.2 mph - N/A   Mostly Cloudy
6:08 AM 32.0°F 32.0°F 100% 29.94 in 10.0 miles SW 10.4 mph - N/A   Mostly Cloudy
6:16 AM 32.0°F 32.0°F 100% 29.94 in 10.0 miles SSW 10.4 mph - N/A   Overcast
6:21 AM 32.0°F 32.0°F 100% 29.95 in 10.0 miles SSW 12.7 mph - N/A   Overcast
6:38 AM 32.0°F 32.0°F 100% 29.94 in 10.0 miles SSW 13.8 mph - N/A   Overcast
6:52 AM 32.0°F 32.0°F 100% 29.95 in 10.0 miles SSW 10.4 mph - N/A   Mostly Cloudy
6:58 AM 32.5°F 31.5°F 96% 30.02 in 10.0 miles SSW 12.7 mph - 0.00 in   Mostly Cloudy
7:03 AM 32.0°F 32.0°F 100% 29.96 in 10.0 miles SSW 10.4 mph - N/A   Mostly Cloudy
7:24 AM 32.0°F 32.0°F 100% 29.96 in 10.0 miles SSW 11.5 mph - N/A   Overcast
7:51 AM 32.0°F 32.0°F 100% 29.97 in 10.0 miles SSW 10.4 mph - N/A   Overcast
7:54 AM 32.0°F 32.0°F 100% 29.97 in 10.0 miles SSW 13.8 mph - N/A   Overcast
7:58 AM 32.5°F 31.6°F 96% 30.04 in 10.0 miles SSW 12.7 mph - 0.00 in   Overcast
7:59 AM 32.0°F 32.0°F 100% 29.97 in 10.0 miles SSW 12.7 mph - N/A   Overcast
8:00 AM 32.0°F 32.0°F 100% 29.97 in 10.0 miles South 11.5 mph - N/A   Overcast
8:09 AM 32.0°F 32.0°F 100% 29.98 in 10.0 miles SSW 12.7 mph - N/A   Mostly Cloudy
8:19 AM 32.0°F 32.0°F 100% 29.98 in 10.0 miles SSW 12.7 mph - N/A   Scattered Clouds
8:27 AM 32.0°F 32.0°F 100% 29.98 in 10.0 miles SSW 15.0 mph - N/A   Partly Cloudy
8:42 AM 32.0°F 32.0°F 100% 29.98 in 10.0 miles SSW 15.0 mph - N/A   Mostly Cloudy
8:47 AM 32.0°F 32.0°F 100% 29.99 in 10.0 miles SSW 13.8 mph 21.9 mph N/A   Mostly Cloudy
8:58 AM 33.1°F 31.6°F 94% 30.06 in 10.0 miles SSW 13.8 mph 23.0 mph 0.00 in   Mostly Cloudy
9:03 AM 32.0°F 32.0°F 100% 29.99 in 10.0 miles SSW 13.8 mph - N/A   Scattered Clouds
9:56 AM 35.6°F 32.0°F 87% 30.01 in 10.0 miles SW 19.6 mph - N/A   Clear
9:58 AM 35.1°F 32.0°F 89% 30.08 in 10.0 miles SW 18.4 mph - N/A   Clear
10:17 AM 35.6°F 32.0°F 87% 30.01 in 10.0 miles SSW 11.5 mph - N/A   Clear
10:39 AM 37.4°F 32.0°F 81% 30.01 in 10.0 miles SSW 10.4 mph - N/A   Clear
10:48 AM 37.4°F 32.0°F 81% 30.01 in 10.0 miles SSW 9.2 mph - N/A   Clear
10:58 AM 36.5°F 32.0°F 84% 30.07 in 10.0 miles SSW 10.4 mph - 0.00 in   Clear
11:19 AM 37.4°F 32.0°F 81% 30.02 in 10.0 miles SSW 4.6 mph - N/A   Clear
11:35 AM 37.4°F 32.0°F 81% 30.01 in 10.0 miles South 9.2 mph - N/A   Clear
11:58 AM 37.6°F 32.0°F 80% 30.09 in 10.0 miles SSW 9.2 mph - 0.00 in   Clear
12:58 PM 38.7°F 32.7°F 79% 30.08 in 10.0 miles SSW 9.2 mph - N/A   Clear
1:01 PM 39.2°F 32.0°F 75% 30.01 in 10.0 miles SSW 9.2 mph - N/A   Clear
1:21 PM 39.2°F 32.0°F 75% 30.02 in 10.0 miles SSW 6.9 mph - N/A   Clear
1:58 PM 39.0°F 32.4°F 77% 30.09 in 10.0 miles SSW 6.9 mph - 0.00 in   Clear
2:15 PM 39.2°F 32.0°F 75% 30.02 in 10.0 miles SW 6.9 mph - N/A   Clear
2:24 PM 39.2°F 32.0°F 75% 30.02 in 10.0 miles SW 4.6 mph - N/A   Clear
2:55 PM 39.4°F 32.7°F 77% 30.08 in 10.0 miles WSW 5.8 mph - N/A   Partly Cloudy
3:37 PM 39.2°F 32.0°F 75% 30.02 in 10.0 miles SW 3.5 mph - N/A   Clear
3:42 PM 39.2°F 32.0°F 75% 30.02 in 10.0 miles SW 2.3 mph - N/A   Clear
3:58 PM 38.7°F 32.2°F 78% 30.09 in 10.0 miles SW 3.5 mph - 0.00 in   Clear
4:33 PM 37.4°F 32.0°F 81% 30.02 in 10.0 miles ENE 2.3 mph - N/A   Clear
4:42 PM 35.6°F 32.0°F 87% 30.02 in 10.0 miles ENE 2.3 mph - N/A   Clear
4:58 PM 36.5°F 31.5°F 82% 30.07 in 10.0 miles ENE 2.3 mph - 0.00 in   Clear
5:27 PM 35.6°F 32.0°F 87% 30.01 in 10.0 miles ESE 4.6 mph - N/A   Clear
5:39 PM 35.6°F 32.0°F 87% 30.01 in 10.0 miles SE 3.5 mph - N/A   Clear
5:58 PM 34.3°F 30.9°F 87% 30.07 in 10.0 miles ESE 3.5 mph - 0.00 in   Clear
6:50 PM 33.8°F 32.0°F 93% 29.99 in 10.0 miles ESE 3.5 mph - N/A   Clear
6:57 PM 32.0°F 30.2°F 93% 29.99 in 10.0 miles ESE 3.5 mph - N/A   Clear
6:58 PM 32.7°F 30.2°F 90% 30.06 in 10.0 miles ESE 3.5 mph - 0.00 in   Clear
7:58 PM 33.6°F 30.2°F 87% 30.06 in 10.0 miles East 2.3 mph - 0.00 in   Clear
8:37 PM 32.0°F 30.2°F 93% 29.98 in 10.0 miles ESE 5.8 mph - N/A   Clear
8:47 PM 32.0°F 30.2°F 93% 29.97 in 10.0 miles ESE 6.9 mph - N/A   Clear
8:58 PM 32.4°F 29.8°F 90% 30.04 in 10.0 miles ESE 5.8 mph - 0.00 in   Clear
9:10 PM 32.0°F 30.2°F 93% 29.97 in 10.0 miles ESE 4.6 mph - N/A   Clear
9:19 PM 32.0°F 30.2°F 93% 29.97 in 10.0 miles ESE 3.5 mph - N/A   Scattered Clouds
9:40 PM 32.0°F 30.2°F 93% 29.96 in 10.0 miles SE 4.6 mph - N/A   Scattered Clouds
9:54 PM 32.0°F 32.0°F 100% 29.96 in 10.0 miles ESE 5.8 mph - N/A   Mostly Cloudy
9:58 PM 32.7°F 30.4°F 91% 30.03 in 10.0 miles SE 5.8 mph - 0.00 in   Scattered Clouds
9:59 PM 32.0°F 32.0°F 100% 29.96 in 10.0 miles SE 5.8 mph - N/A   Scattered Clouds
10:23 PM 33.8°F 32.0°F 93% 29.95 in 10.0 miles East 10.4 mph - N/A   Mostly Cloudy
10:58 PM 34.5°F 30.9°F 87% 30.00 in 10.0 miles NE 6.9 mph - 0.00 in   Mostly Cloudy
11:58 PM 33.1°F 30.7°F 91% 29.99 in 10.0 miles NE 10.4 mph - N/A   Overcast
Moon Phase
Feb. 06 Feb. 10 Feb. 17 Feb. 25 Mar. 04
Sunrise:07:09 AM (PST) Moon Rise:04:06 AM (PST)2/6
Sunset:05:00 PM (PST) Moon Set:01:15 PM (PST)2/6

Copyright © 2014 The Weather Underground, Inc.